Orbital Elements at Epoch 2459200.5 (2020-Dec-17.0) TDB
Reference: JPL 18 (heliocentric ecliptic J2000)
Element | Value | Uncertainty (1-sigma) | Units |
e | .1748726072196937 | 3.9265e-08 | |
a | 2.732766449385744 | 1.6584e-08 | au |
q | 2.254880455459154 | 1.1119e-07 | au |
i | 8.075963761285134 | 4.8078e-06 | deg |
node | 180.089362674946 | 2.9359e-05 | deg |
peri | 68.65082284145319 | 3.2582e-05 | deg |
M | 259.1693063087446 | 1.6625e-05 | deg |
tp | 2459662.660108884191 (2022-Mar-24.16010888) | 7.8633e-05 | TDB |
period | 1650.0693698266 4.52 | 1.5021e-05 4.113e-08 | d yr |
n | .2181726456978177 | 1.986e-09 | deg/d |
Q | 3.210652443312335 | 1.9484e-08 | au |
|
| | Orbit Determination Parameters
Additional Information
|